{"data":{"norad_id":49132,"epoch":"2026-09-20T02:39:18.286848Z","epoch_age_seconds":74960,"freshness":"FRESH","line1":"1 49132U 21082C   26263.11062832  .00001359  00000+0  12164-3 0  9998","line2":"2 49132  70.0005 164.1264 0002696 268.4221  91.6629 14.98339601275107","mean_motion":14.98339601,"eccentricity":0.0002696,"inclination_deg":70.0005,"raan_deg":164.1264,"arg_perigee_deg":268.4221,"mean_anomaly_deg":91.6629,"bstar":0.00012164,"rev_number":27510,"period_min":96.106383295145,"perigee_km":570.15243680351,"apogee_km":573.89996480138,"semimajor_km":6950.1632008024,"source":"CELESTRAK","updated_at":"2026-09-20T09:00:39.246539Z"}}